DELTA 1 DEB, 40757

Orbit data source: Space-Track

DELTA 1 DEB, 40757 is space debris in SSO originally from a launch on Thu, 29 Jul 1976 UTC launched from the Air Force Western Test Range (AFWTR). Debris objects in space refer to the collection of defunct objects orbiting the Earth. Examples of debris include non-operational satellites, rocket bodies, and fragments generated from explosions, collisions, or faulty payload assembly.

Loading next visibility...
Identifier
40757, 1976-077GA
Orbit
SSO
Country
Flag of USUS
Related business
Manufacturer
Unknown
Mission
Spacecraft
Bus & Motor
Unknown
Mass
Unknown
Launch date (UTC)
1976-07-29 (50 years ago)
Launch vehicle
Unknown
Launch site
Air Force Western Test Range (AFWTR)
Object type
Payload
Rocket body
Debris
Shape & HBR
Unknown shape, 0.1 m
Radar Cross Section
Small (<0.1 m²)

Expand to show TLE details & history
Last TLE update: 4 days ago

TLE from 4 days ago
0 DELTA 1 DEB
1 40757U 76077GA  26115.10186535  .00000046  00000-0  56890-3 0  9995
2 40757 101.9106  88.8936 0003108 242.7428 117.3328 12.54825467570142
Epoch: 2026-04-25T02:26Z
TLE epoch observation values (Epoch: 2026-04-25T02:26:41.166Z)
Latitude
Longitude
-160.90299°
Altitude
1,448.066 km
Speed
7.138 km/s
True Right ascension
05h 55m 34s
True Declination
0° 00' 00"
Sunlit
Object was in daylight at epoch
Visualization orbit readout
Latitude
Unknown
Longitude
Unknown
Altitude
Unknown
Speed
Unknown
Apparent Right ascension
Unknown
Apparent Declination
Unknown
Sunlit
N/A
Visualization observer readout
Local Sidereal Time
16:42:11
Azimuth
Unknown
Elevation
Unknown
Doppler factor
Unknown
Orbital elements
Apogee altitude
1,444.356 km
Perigee altitude
1,439.496 km
Semi-major axis
7,820.063 km
Eccentricity
0.00031
Inclination
101.9106°
RAAN
88.8936°
Arg. of periapsis
242.7428°
True anomaly
117.36443°
Mean anomaly
117.3328°
Eccentric anomaly
117.34862°
Mean motion
3.13854 °/min
Orbital period
114.7 mins
BSTAR
0.0005689
Loading maneuver chart data...
Computing Atmospheric mass density...
Loading historical data...
Loading historical data...
Loading historical data...
Loading historical data...
Loading historical data...
Loading historical data...
Loading historical data...

Documentation

Showing up to 5 results
|